Location: Ansan
(43.6898°N, 0.7731°E)
Time: 05:31:43
(UTC+00:00)

Cosmos 2333 Rocket - Pass Details

Date: 15 May 2026
Orbit: 840 x 862 km, 70.8° (Epoch: 6 June)

Event Time Altitude Azimuth Distance (km) Brightness Sun altitude
Rises 21:36:01 0° 330° (NNW) 3,423 7.0 -19.8°
Reaches altitude 10° 21:38:30 10° 327° (NNW) 2,486 5.9 -20.1°
Maximum altitude 21:44:04 56° 251° (WSW) 1,012 2.6 -20.6°
Enters shadow 21:46:30 32° 189° (S) 1,423 3.0 -20.9°
